Regional Weather Roundup
Issued by NWS Goodland, KS

Home | Current Version | Previous Version | Graphics & Text | Print | Product List | Glossary On
Versions: 1 2 3 4 5 6 7 8 9 10 11 12 13 14 15 16 17 18 19 20 21 22 23 24 25 26 27 28 29 30 31 32 33 34 35 36 37 38 39 40 41 42 43 44 45 46 47 48 49 50
000
ASUS43 KGLD 240108
RWRGLD

GOODLAND FORECAST AREA HOURLY WEATHER ROUNDUP
NATIONAL WEATHER SERVICE GOODLAND KS
700 PM MDT FRI JUN 23 2017

...OFFICIAL OBSERVATIONS...

CITY           SKY/WX    TMP DP  RH WIND       PRES   REMARKS
GOODLAND KS    MOSUNNY   68  50  52 W6        30.16R
HILL CITY KS   PTSUNNY   77  48  35 N6        30.09R
IMPERIAL NEB   MOSUNNY   74  36  25 W9        30.14R
MCCOOK NEB     SUNNY     77  37  23 NW12      30.10R
AKRON CO       MOSUNNY   68  41  37 NW3       30.22R
BURLINGTON CO  PTSUNNY   68  48  48 W5        30.21R
LIMON CO       PTSUNNY   63  43  48 CALM      30.26R
$$

...UNOFFICIAL OBSERVATIONS...

CITY           SKY/WX    TMP DP  RH WIND       PRES   REMARKS
LENORA KS        N/A     77  32  19 MISG        N/A
NORTON KS      MOSUNNY   75  32  20 NW10      30.08S
SHARON SPRINGS   N/A     67  49  52 CALM        N/A
TRENTON NEB      N/A     75  32  20 CALM        N/A
KIT CARSON CO    N/A     66  46  48 MISG        N/A
YUMA CO        FAIR      68  41  37 N8        30.20R
$$




USA.gov is the U.S. government's official web portal to all federal, state and local government web resources and services.